STARLINK-4451, 53492

Orbit data source: Space-Track

STARLINK-4451, 53492 is a payload satellite owned by SpaceX/Seattle (US) in SSO that was launched on Fri, 12 Aug 2022 UTC via an FALCON 9 launch vehicle from the Air Force Western Test Range (AFWTR). Payload-class satellites include a variety of spacecraft equipped with specific instruments for various scientific and technological missions. These include communications satellites like Starlink; space stations such as the ISS; scientific satellites like the Hubble; Earth observation satellites from companies like Planet Labs, Umbra, and HawkEye 360; GPS; miniature CubeSats for education and research; and military/defense satellites.

Loading next visibility...
Identifier
53492, 2022-099AD
Orbit
SSO
Country
Flag of USUS
Related business
Manufacturer
SpaceX/Seattle
Mission
Operational Commercial Communications
Bus & Motor
STARLINK, Unknown motor
Mass
300 kg wet, ~275 kg dry
Launch date (UTC)
2022-08-12 (3 years ago)
Launch vehicle
FALCON 9
Launch site
Air Force Western Test Range (AFWTR)
Object type
Payload
Rocket body
Debris
Shape & HBR
Box + 1 Pan, 10.1 m
Radar Cross Section
13.562 m², Large (>1 m²)

Expand to show TLE details & history
Last TLE update: 10 hours ago

TLE from 10 hours ago
0 STARLINK-4451
1 53492U 22099AD  25308.31566938  .00007017  00000-0  55007-3 0  9999
2 53492  97.6019  67.4707 0001055 229.1580 130.9553 15.01277299177178
Epoch: 2025-11-04T07:34Z
TLE epoch observation values (Epoch: 2025-11-04T07:34:33.834Z)
Latitude
-0.00003°
Longitude
-89.97472°
Altitude
566.496 km
Speed
7.578 km/s
True Right ascension
04h 29m 52s
True Declination
0° 00' 00"
Sunlit
Object was in full shadow at epoch
Visualization orbit readout
Latitude
Unknown
Longitude
Unknown
Altitude
Unknown
Speed
Unknown
Apparent Right ascension
Unknown
Apparent Declination
Unknown
Sunlit
N/A
Visualization observer readout
Local Sidereal Time
13:52:06
Azimuth
Unknown
Elevation
Unknown
Doppler factor
Unknown
Orbital elements
Apogee altitude
560.688 km
Perigee altitude
559.224 km
Semi-major axis
6,938.093 km
Eccentricity
0.00011
Inclination
97.6019°
RAAN
67.4707°
Arg. of periapsis
229.158°
True anomaly
130.96443°
Mean anomaly
130.9553°
Eccentric anomaly
130.95986°
Mean motion
3.75563 °/min
Orbital period
95.86 mins
BSTAR
0.00055007
Loading maneuver chart data...
Computing Atmospheric mass density...
Loading historical data...
Loading historical data...
Loading historical data...
Loading historical data...
Loading historical data...
Loading historical data...
Loading historical data...

Documentation

Showing up to 5 results
|